This demonstration page uses our WeatherBlox Daily Observations layout. Learn more.

Left ArrowRight Arrow

36.19886, -115.1175

Hourly Observations for November 27, 2021

Temp ( °F °C ) Dew Point ( °F °C ) Humidity (%) Winds ( mph kmh ) Pressure ( in mb ) Visibility ( mi km ) Precip ( " mm )
12:53 am 00:53 Clear 48 8.9 6 -14.4 18 18 NW 6 9 30.16 1021 10 16 N/A
1:53 am 01:53 Clear 49 9.4 4 -15.6 16 16 W 5 7 30.16 1021 10 16 N/A
2:53 am 02:53 Clear 48 8.9 6 -14.4 18 18 W 9 15 30.16 1021 10 16 N/A
3:53 am 03:53 Clear 46 7.8 6 -14.4 19 19 WNW 7 11 30.17 1022 10 16 N/A
4:53 am 04:53 Clear 47 8.3 6 -14.4 19 19 NW 7 11 30.18 1022 10 16 N/A
5:53 am 05:53 Clear 46 7.8 10 -12.2 23 23 W 3 6 30.20 1023 10 16 N/A
6:53 am 06:53 Sunny 43 6.1 11 -11.7 27 27 WNW 5 7 30.22 1024 10 16 N/A
7:53 am 07:53 Sunny 50 10 9 -12.8 19 19 W 5 7 30.24 1024 10 16 N/A
8:53 am 08:53 Sunny 54 12.2 7 -13.9 15 15 N N/A 30.24 1024 10 16 N/A
9:53 am 09:53 Sunny 61 16.1 8 -13.3 12 12 ENE 3 6 30.24 1024 10 16 N/A
10:53 am 10:53 Sunny 63 17.2 10 -12.2 12 12 N N/A 30.23 1024 10 16 N/A
11:53 am 11:53 Sunny 68 20 7 -13.9 9 9 N N/A 30.20 1023 10 16 N/A
12:53 pm 12:53 Sunny 69 20.6 3 -16.1 7 7 ESE 3 6 30.18 1022 10 16 N/A
1:53 pm 13:53 Sunny 70 21.1 5 -15 8 8 N N/A 30.16 1022 10 16 N/A
2:53 pm 14:53 Sunny 70 21.1 6 -14.4 8 8 N N/A 30.15 1021 10 16 N/A
3:53 pm 15:53 Sunny 70 21.1 7 -13.9 8 8 N N/A 30.16 1021 10 16 N/A
4:53 pm 16:53 Clear 66 18.9 7 -13.9 10 10 N N/A 30.17 1022 10 16 N/A
5:53 pm 17:53 Clear 59 15 13 -10.6 16 16 W 5 7 30.20 1023 10 16 N/A
6:53 pm 18:53 Clear 59 15 15 -9.4 18 18 WNW 6 9 30.23 1024 10 16 N/A
7:53 pm 19:53 Clear 54 12.2 15 -9.4 21 21 NW 6 9 30.24 1024 10 16 N/A
8:53 pm 20:53 Clear 53 11.7 14 -10 21 21 WNW 8 13 30.25 1024 10 16 N/A
9:53 pm 21:53 Clear 53 11.7 13 -10.6 20 20 N 5 7 30.26 1025 10 16 N/A
10:53 pm 22:53 Clear 51 10.6 12 -11.1 21 21 WNW 6 9 30.28 1025 10 16 N/A
11:53 pm 23:53 Clear 51 10.6 13 -10.6 22 22 W 5 7 30.28 1025 10 16 N/A

Powered by AerisWeather